Weather History for Seward, AK

Change the Weather History Date:

Wednesday, January 29, 2014

  Actual Average Record
Temperature  
Mean Temperature 37 °F -  
Max Temperature 41 °F 30 °F 44 °F (2003)
Min Temperature 33 °F 20 °F -15 °F (1989)
Degree Days  
Heating Degree Days 28    
Moisture  
Dew Point 36 °F    
Average Humidity 97    
Maximum Humidity 100    
Minimum Humidity 92    
Precipitation  
Precipitation 0.06 in - - ()
Sea Level Pressure  
Sea Level Pressure 30.11 in    
Wind  
Wind Speed 1 mph (NNW)    
Max Wind Speed 5 mph    
Max Gust Speed -    
Visibility 7 miles    
Events Rain    
Averages and records for this station are not official NWS values.
T = Trace of Precipitation, MM = Missing Value Source: NWS Daily Summary

Daily Weather History Graph

Daily Weather History Graph

Search for Another Location

Airport:

Trip Planner

Search our weather history database for the weather conditions in past years. The results will help you decide how hot, cold, wet, or windy it might be!

Date:

Astronomy

Jan. 29, 2014 Rise Set
Actual Time 9:18 AM AKST 5:04 PM AKST
Civil Twilight 8:30 AM AKST 5:52 PM AKST
Nautical Twilight 7:38 AM AKST 6:43 PM AKST
Astronomical Twilight 6:49 AM AKST 7:32 PM AKST
Moon 8:04 AM AKST (1/29) 4:18 PM AKST (1/29)
Length of Visible Light 9h 22m
Length of Day
7h 45m
Waning Crescent, 2% of the Moon is Illuminated
Jan 29
Waning Crescent
Jan 30
New
Feb 6
First Quarter
Feb 14
Full
Feb 22
Last Quarter

Hourly Weather History & Observations

Time (AKST) Temp. Windchill Dew Point Humidity Pressure Visibility Wind Dir Wind Speed Gust Speed Precip Events Conditions
12:53 AM 35.1 °F - 34.0 °F 96% 30.06 in 9.0 mi Calm Calm - 0.01 in   Overcast
1:53 AM 36.0 °F 33.3 °F 34.0 °F 93% 30.06 in 10.0 mi North 3.5 mph - 0.00 in   Overcast
3:38 AM 35.6 °F - 35.6 °F 100% 30.07 in 3.0 mi Calm Calm - 0.02 in Rain Light Rain
3:53 AM 36.0 °F - 35.1 °F 97% 30.07 in 5.0 mi Calm Calm - 0.03 in Rain Light Rain
4:15 AM 35.6 °F - 35.6 °F 100% 30.07 in 6.0 mi Calm Calm - 0.00 in Rain Light Rain
4:50 AM 35.6 °F 32.8 °F 35.6 °F 100% 30.07 in 10.0 mi NNW 3.5 mph - 0.01 in   Overcast
4:53 AM 36.0 °F 33.3 °F 35.1 °F 97% 30.07 in 10.0 mi NNW 3.5 mph - 0.01 in   Overcast
5:53 AM 35.1 °F - 34.0 °F 96% 30.07 in 8.0 mi Calm Calm - N/A   Overcast
6:53 AM 35.1 °F - 34.0 °F 96% 30.06 in 10.0 mi Calm Calm - N/A   Overcast
7:53 AM 35.1 °F - 34.0 °F 96% 30.07 in 6.0 mi Calm Calm - N/A   Overcast
8:53 AM 36.0 °F - 35.1 °F 97% 30.08 in 10.0 mi Calm Calm - 0.00 in   Overcast
9:53 AM 35.1 °F - 34.0 °F 96% 30.09 in 10.0 mi Calm Calm - 0.00 in   Overcast
10:53 AM 36.0 °F - 35.1 °F 97% 30.09 in 10.0 mi Calm Calm - 0.01 in   Overcast
11:53 AM 37.0 °F - 36.0 °F 96% 30.11 in 10.0 mi Calm Calm - N/A   Overcast
12:53 PM 37.9 °F - 37.0 °F 97% 30.11 in 8.0 mi Calm Calm - N/A   Overcast
1:53 PM 39.9 °F - 37.9 °F 93% 30.11 in 10.0 mi Calm Calm - N/A   Overcast
2:53 PM 41.0 °F - 39.0 °F 93% 30.11 in 10.0 mi Calm Calm - 0.00 in   Overcast
3:53 PM 41.0 °F - 39.0 °F 93% 30.12 in 10.0 mi Calm Calm - N/A   Overcast
4:50 PM 37.4 °F - 37.4 °F 100% 30.11 in 1.5 mi Calm Calm - N/A   Overcast
4:53 PM 37.9 °F - 37.0 °F 97% 30.12 in 0.8 mi Calm Calm - N/A   Overcast
5:01 PM 37.4 °F - 37.4 °F 100% 30.12 in 1.2 mi Calm Calm - N/A   Overcast
5:04 PM 39.2 °F - 37.4 °F 93% 30.12 in 3.0 mi Calm Calm - N/A   Overcast
5:19 PM 37.4 °F - 37.4 °F 100% 30.12 in 1.8 mi Calm Calm - N/A   Overcast
5:27 PM 37.4 °F - 37.4 °F 100% 30.12 in 3.0 mi Calm Calm - N/A   Overcast
5:36 PM 37.4 °F - 37.4 °F 100% 30.12 in 2.5 mi Calm Calm - N/A   Overcast
5:45 PM 37.4 °F - 37.4 °F 100% 30.13 in 1.8 mi Calm Calm - N/A   Overcast
5:53 PM 37.0 °F - 36.0 °F 96% 30.13 in 0.8 mi Calm Calm - N/A   Overcast
6:05 PM 35.6 °F - 35.6 °F 100% 30.13 in 1.2 mi Calm Calm - N/A   Overcast
6:08 PM 35.6 °F - 35.6 °F 100% 30.13 in 2.0 mi Calm Calm - N/A   Overcast
6:12 PM 35.6 °F - 35.6 °F 100% 30.13 in 3.0 mi Calm Calm - N/A   Overcast
6:27 PM 35.6 °F - 35.6 °F 100% 30.13 in 10.0 mi Calm Calm - N/A   Overcast
6:40 PM 35.6 °F - 35.6 °F 100% 30.13 in 1.8 mi Calm Calm - N/A   Overcast
6:53 PM 36.0 °F 33.3 °F 35.1 °F 97% 30.13 in 5.0 mi NW 3.5 mph - N/A   Overcast
7:34 PM 35.6 °F 32.8 °F 35.6 °F 100% 30.14 in 10.0 mi WNW 3.5 mph - N/A   Overcast
7:43 PM 35.6 °F 32.8 °F 35.6 °F 100% 30.14 in 10.0 mi NNW 3.5 mph - N/A   Overcast
7:53 PM 35.1 °F 31.0 °F 34.0 °F 96% 30.14 in 10.0 mi NNW 4.6 mph - N/A   Overcast
8:53 PM 35.1 °F 31.0 °F 33.1 °F 92% 30.14 in 10.0 mi North 4.6 mph - N/A   Overcast
9:04 PM 35.6 °F - 33.8 °F 93% 30.14 in 10.0 mi Calm Calm - N/A   Overcast
9:53 PM 34.0 °F - 33.1 °F 96% 30.14 in 10.0 mi Calm Calm - N/A   Overcast
10:15 PM 33.8 °F - 33.8 °F 100% 30.15 in 10.0 mi Calm Calm - N/A   Overcast
10:53 PM 33.1 °F - 32.0 °F 96% 30.15 in 10.0 mi Calm Calm - N/A   Overcast
11:53 PM 34.0 °F - 32.0 °F 92% 30.17 in 10.0 mi Calm Calm - N/A   Overcast